Regional Weather Roundup
Issued by NWS

Home | Current Version | Previous Version | Graphics & Text | Print | Product List | Glossary On
Versions: 1 2 3 4 5 6 7 8 9 10 11 12 13 14 15 16 17 18 19 20 21 22 23 24 25 26 27 28 29 30 31 32 33 34 35 36 37 38 39 40 41 42 43 44 45 46 47 48 49 50
000
ASUS45 KCYS 291610
RWRWY

WYOMING REGIONAL WEATHER ROUNDUP
NATIONAL WEATHER SERVICE CHEYENNE WY
1000 AM MDT MON MAY 29 2017

NOTE:  "FAIR" INDICATES FEW OR NO CLOUDS BELOW 12,000 FEET
WITH NO SIGNIFICANT WEATHER AND/OR OBSTRUCTIONS TO VISIBILITY.

WYZ001-291700-
YELLOWSTONE NATIONAL PARK

CITY           SKY/WX    TMP DP  RH WIND       PRES   REMARKS
LK YELLOWSTONE   N/A     40  35  83 E5        30.39F
W YELLOWSTONE  NOT AVBL

$$
WYZ002>013-054>058-071-098>099-291700-
NORTHERN WYOMING

CITY           SKY/WX    TMP DP  RH WIND       PRES   REMARKS
JACKSON        SUNNY     52  37  58 CALM      30.33R
CODY           FAIR      60  39  45 NE6       30.29F
GREYBULL       FAIR      62  42  47 W5        30.24F
WORLAND        FAIR      61  46  57 VRB5      30.25S
SHERIDAN       FAIR      62  38  40 NW12      30.24F
BUFFALO        FAIR      59  35  40 N20G25    30.25F
GILLETTE       FAIR      59  32  36 N14G21    30.22F
HULETT         FAIR      55  28  35 N15       30.22F
NEWCASTLE      FAIR      57  27  30 NW22G31   30.21S

$$
WYZ014>020-022>026-101>103-291700-
CENTRAL WYOMING

CITY           SKY/WX    TMP DP  RH WIND       PRES   REMARKS
BIG PINEY      FAIR      53  37  54 S8        30.35F
PINEDALE       FAIR      52  36  54 NW5       30.36S
DUBOIS         FAIR      54  36  50 E6        30.32F
LANDER         FAIR      58  40  51 E5        30.28F
RIVERTON       FAIR      60  43  53 NE8       30.29S
CASPER         FAIR      57  43  59 CALM      30.27F
DOUGLAS        FAIR      61  43  51 W10       30.25S

$$
WYZ021-027>030-104>119-291700-
SOUTHERN WYOMING

CITY           SKY/WX    TMP DP  RH WIND       PRES   REMARKS
EVANSTON       FAIR      56  39  53 NE9       30.32S
KEMMERER         N/A     54  34  47 E8        30.35S
FORT BRIDGER   FAIR      56  37  49 E7        30.36S
ROCK SPRINGS   FAIR      56  35  45 E7        30.32F
DIXON            N/A     59  35  40 CALM      30.31F
RAWLINS        FAIR      58  35  42 VRB3      30.32F
SARATOGA       FAIR      55  34  44 N12G17    30.33S
LARAMIE        FAIR      54  33  45 VRB6      30.31S
CHEYENNE       FAIR      58  36  43 MISG      30.28F
TORRINGTON     FAIR      65  39  38 NW14      30.19F
PINE BLUFFS    FAIR      59  37  44 NW8G16    30.26F

$$



USA.gov is the U.S. government's official web portal to all federal, state and local government web resources and services.